QIANFAN-16 (60394 NORAD) Tracking and Keplerian Element Data

This shows tracking and keplerian element data for the satellite.

Feedback or suggestion? Click here.




ElementValue
Catalog60394
NameQIANFAN-16
Epoch Orbit945
Epoch Day286.51984039
Epoch Year2024
RAAN343.4807
Inclination88.9939
Eccentricity0.0017478
Argument of Perigee27.5676
Mean Anonmoly332.6432
Mean Motion14.10950226
Decay Rate1.393E-05
L11 60394U 24140R 24286.51984039 .00001393 00000+0 76796-3 0 9997
L22 60394 88.9939 343.4807 0017478 27.5676 332.6432 14.10950226 9450



Live tracking and technical data element details for QIANFAN-16 (NORAD 60394). QIANFAN-16 can be tracked NOW for your location showing map with azimuth and elevation plus other details from your city location.







IsCatalogInMostPopularTable: catalog: 60394, numindb: 5
Update: records affected: 1



GetName: 60394 QIANFAN-16

Hit Count: updated at: Fri, 06 Dec 2024 11:02:49 GMT